Regional Weather Roundup
Issued by NWS Newport/Morehead, NC

Current Version | Previous Version | Graphics & Text | Print | Product List | Glossary Off
Versions: 1 2 3 4 5 6 7 8 9 10 11 12 13 14 15 16 17 18 19 20 21 22 23 24 25 26 27 28 29 30 31 32 33 34 35 36 37 38 39 40 41 42 43 44 45 46 47 48 49 50

000
ASUS42 KMHX 010810
RWRMHX
WEATHER ROUNDUP FOR EASTERN NORTH CAROLINA
NATIONAL WEATHER SERVICE NEWPORT/MOREHEAD CITY NC
400 AM EDT FRI AUG 01 2014

NOTE: "FAIR" INDICATES FEW OR NO CLOUDS BELOW 12,000 FEET
WITH NO SIGNIFICANT WEATHER AND/OR OBSTRUCTIONS TO VISIBILITY

NCZ015>017-031-032-045>047-102-103-010900-
NORTH COAST

CITY           SKY/WX    TMP DP  RH WIND       PRES   REMARKS
EDENTON        CLOUDY    71  68  89 NE5       30.12F
ELIZABETH CITY CLOUDY    74  67  78 E5        30.13F
KITTY HAWK     PTSUNNY   75  69  79 E3        30.12F
MANTEO         NOT AVBL

$$

NCZ045>047-081-094-103-104-010900-
CENTRAL COAST

CITY           SKY/WX    TMP DP  RH WIND       PRES   REMARKS
FRISCO         MOCLDY    77  69  76 E6        30.11F
SWANQUARTER      N/A     72 N/A N/A E3        30.06S

$$

NCZ095-097-098-100-101-010900-
SOUTHERN COAST

CITY           SKY/WX    TMP DP  RH WIND       PRES   REMARKS
BEAUFORT       CLOUDY    80  72  76 E8        30.08F
CEDAR ISLAND     N/A     79 N/A N/A E16       30.12F
JACKSONVILLE   LGT RAIN  75  71  87 NE7       30.08S
NEWPORT        NOT AVBL
PINEY ISLAND   CLOUDY    81  73  76 E12       30.09S
WILMINGTON     CLOUDY    78  74  87 E9G25     30.03F


$$

NCZ011>013-027>030-043-044-078>080-089-090>093-098-010900-
COASTAL PLAIN

CITY           SKY/WX    TMP DP  RH WIND       PRES   REMARKS
AHOSKIE        CLOUDY    70  65  85 CALM      30.13F
CLINTON        LGT RAIN  72  70  94 E3        30.08S
ELIZABETHTOWN  RAIN      71  71  98 CALM      30.07R
GOLDSBORO      CLOUDY    72  71  98 E6        30.08S
GREENVILLE     CLOUDY    72  68  88 E3        30.13R
HAVELOCK       CLOUDY    74  68  81 E3        30.10S
KENANSVILLE    LGT RAIN  72  68  88 CALM      30.09F
KINSTON        CLOUDY    72  69  90 NE5       30.10F
NEW BERN       CLOUDY    76  68  76 CALM      30.11S
RICHLANDS      CLOUDY    73  66  78 NE5       30.09R
ROANOKE RAPIDS NOT AVBL
ROCKY MOUNT    CLOUDY    71  66  84 NE6       30.11F
WASHINGTON     CLOUDY    70  66  88 NE5       30.12S
WHITEVILLE     CLOUDY    73  71  93 NE7       30.03F

$$

AMZ130-135-150-152-154-156-158-170-250-252-270-ANZ085-086-088-633-658-670-010900-
MARINE OBSERVATIONS

STATION/POSITION TIME  TEMP    WIND        PRES    WAVE   SWELL
                       AIR SEA DIR/SP/G            HT/PER HT/PER
                 (UTC) (F)     (DEG/KT/KT) (MB)    (FT/S) (FT/S)
CHESAPEAKE LIGHT NOT AVBL
BUOY 44014       0800   78 78  100/  6/  8 1020.9    2/ 6   2/ 6
DUCK             0800   77 77  110/  7/  9 1019.9
2E DUCK          0800                        N/A     2/ 6
OREGON INLET     0800   77 79   80/  6/  8 1020.1
BUOY 44095       0800      78                N/A     3/ 6
20E OREGON INLET NOT AVBL
HATTERAS CG      0800   79 80  100/  8/ 11 1019.8
DIAMOND BUOY     0800          VRB 12/ 14  1019.0    4/ 6   3/ 6
CAPE LOOKOUT     0700   80      90/ 17/ 19 1018.5
BEAUFORT LAB     0800   80 82   90/  5/ 10 1018.1
30 SE NEW RIVER  0800   81 81  100/ 16/ 17 1017.9    5/ 6   2/14
5 SE WRIGHTSVILL 0700   78 81  110/ 17/ 21   N/A
BUOY 41002       0726   81 81  160/ 10/ 12 1018.5    4/ 7   3/ 7
BUOY 41004       0800   81 83  170/ 14/ 16 1014.3    4/ 6   2/ 7

$$



USA.gov is the U.S. government's official web portal to all federal, state and local government web resources and services.